METEOSAT 7

导读

METEOSAT 7是欧洲气象卫星组织(EUMETSAT)研制的第一代地球静止气象卫星,于1997年9月2日成功发射。它运行在赤道上空约36000公里的地球静止轨道,初期服务于欧洲、非洲地区的气象监测,后期转至印度洋区域填补观测空白,为天气预报和气候研究提供持续数据支撑。作为服役时间最长的第一代Meteosat卫星,它直至2017年才正式脱离轨道,为全球气象观测事业作出了重要贡献。

Basic Information
目录编号:
24932
目录名称:
METEOSAT 7
国际标识:
1997-049B
轨道中心:
EARTH
卫星名称:
METEOSAT 7
卫星全名:
--
卫星状态:
在轨 (已飞行10605 天)
发射日期:
1997-09-02 UTC
国别 :
(EUME)
星等 :
--
This satellite is enrolled in the Space Conjunction Data Service (SCDS) and the current flight risk assessment level is: No High Risk
Orbit Information
数据来源 国际轨道数据 AOE轨道数据
星历时间 2026-09-15T22:47:08+0800
8小时前
查看轨道信息
2026-09-15T23:00:00+0800
7小时前
查看轨道信息
半长轴 42723.267km 42723.528km
偏心率 0.0007037 0.0007197
轨道倾角 13.788° 13.788°
近地点辐角 62.966° 63.757°
升交点赤经 14.314° 14.313°
平近点角 293.910° 296.279°
近地点 36315.065km 36314.642km
远地点 36375.195km 36376.14km
周期 1464.726分钟 1464.739分钟
每日圈数 0.983119 0.98311
Detailed Information
使用方式:
暂无
2D Orbit Map
3D Orbit Map
Orbit Altitude Analysis Chart
Orbit Inclination Analysis Chart
Orbit Comprehensive Analysis Chart
View Comprehensive Chart
Miss Distance Evolution Trend with All Objects Subscribe to Flight Safety Assessment
Collision Probability Evolution Trend with All Objects Subscribe to Flight Safety Assessment